• In Moldova, Republic
  • List of Countries
  • For 7 days
  • Water Temperature
  • Satellite Maps
  • Weather Map
  • Weather Widgets
  • user-avatar
    Login

    Hourly Weather Ganja

    Today, 24 April, Monday

    Time Temperature Precipitation Wind Pressure Humidity
    00:00 +13°C° 0 mm 2 mps 718 mmHg 85%
    01:00 +11°C° 0 mm 3 mps 718 mmHg 82%
    02:00 +11°C° 0 mm 4 mps 719 mmHg 79%
    03:00 +10°C° 0 mm 8 mps 719 mmHg 75%
    04:00 +10°C° 0 mm 8 mps 719 mmHg 70%
    05:00 +10°C° 0 mm 7 mps 719 mmHg 64%
    06:00 +10°C° 0 mm 7 mps 719 mmHg 59%
    07:00 +12°C° 0 mm 7 mps 720 mmHg 53%
    08:00 +14°C° 0 mm 7 mps 720 mmHg 48%
    09:00 +16°C° 0 mm 7 mps 720 mmHg 42%
    10:00 +17°C° 0 mm 7 mps 720 mmHg 40%
    11:00 +18°C° 0 mm 7 mps 720 mmHg 38%
    12:00 +20°C° 0 mm 7 mps 720 mmHg 36%
    13:00 +20°C° 0.1 mm 6 mps 721 mmHg 37%
    14:00 +20°C° 0.1 mm 6 mps 721 mmHg 38%
    15:00 +20°C° 0.1 mm 6 mps 721 mmHg 39%
    16:00 +19°C° 0 mm 5 mps 722 mmHg 43%
    17:00 +18°C° 0 mm 4 mps 722 mmHg 46%
    18:00 +15°C° 0 mm 4 mps 723 mmHg 50%
    19:00 +14°C° 0 mm 3 mps 723 mmHg 53%
    20:00 +13°C° 0 mm 3 mps 724 mmHg 56%
    21:00 +12°C° 0 mm 3 mps 725 mmHg 59%
    22:00 +11°C° 0 mm 3 mps 725 mmHg 59%
    23:00 +12°C° 0 mm 2 mps 726 mmHg 59%

    Tomorrow, 25 April, Tuesday

    Time Temperature Precipitation Wind Pressure Humidity
    00:00 +10°C° 0 mm 2 mps 726 mmHg 59%
    01:00 +9°C° 0 mm 2 mps 726 mmHg 60%
    02:00 +9°C° 0 mm 2 mps 726 mmHg 62%
    03:00 +8°C° 0 mm 2 mps 726 mmHg 63%
    04:00 +8°C° 0 mm 3 mps 727 mmHg 62%
    05:00 +9°C° 0 mm 3 mps 727 mmHg 62%
    06:00 +9°C° 0 mm 3 mps 727 mmHg 61%
    07:00 +10°C° 0 mm 4 mps 728 mmHg 56%
    08:00 +12°C° 0 mm 5 mps 728 mmHg 50%
    09:00 +14°C° 0 mm 5 mps 728 mmHg 44%
    10:00 +14°C° 0 mm 5 mps 728 mmHg 42%
    11:00 +15°C° 0 mm 5 mps 728 mmHg 41%
    12:00 +16°C° 0 mm 5 mps 728 mmHg 39%
    13:00 +16°C° 0 mm 5 mps 728 mmHg 39%
    14:00 +16°C° 0 mm 5 mps 728 mmHg 39%
    15:00 +16°C° 0 mm 5 mps 729 mmHg 39%
    16:00 +15°C° 0 mm 4 mps 729 mmHg 41%
    17:00 +14°C° 0 mm 4 mps 730 mmHg 42%
    18:00 +13°C° 0 mm 3 mps 730 mmHg 44%
    19:00 +12°C° 0 mm 3 mps 731 mmHg 46%
    20:00 +10°C° 0 mm 3 mps 732 mmHg 48%
    21:00 +9°C° 0 mm 2 mps 733 mmHg 50%
    22:00 +8°C° 0 mm 2 mps 733 mmHg 52%
    23:00 +8°C° 0 mm 2 mps 734 mmHg 55%

    Day after tomorrow, 26 April, Wednesday

    Time Temperature Precipitation Wind Pressure Humidity
    00:00 +7°C° 0 mm 2 mps 734 mmHg 58%
    01:00 +8°C° 0 mm 1 mps 734 mmHg 62%
    02:00 +7°C° 0 mm 1 mps 734 mmHg 66%
    03:00 +6°C° 0 mm 1 mps 734 mmHg 69%
    04:00 +7°C° 0 mm 1 mps 735 mmHg 70%
    05:00 +7°C° 0 mm 1 mps 735 mmHg 70%
    06:00 +8°C° 0 mm 1 mps 736 mmHg 70%
    07:00 +9°C° 0 mm 2 mps 736 mmHg 64%
    08:00 +10°C° 0 mm 3 mps 736 mmHg 57%
    09:00 +12°C° 0 mm 4 mps 736 mmHg 50%
    10:00 +13°C° 0 mm 4 mps 736 mmHg 49%
    11:00 +14°C° 0 mm 5 mps 735 mmHg 48%
    12:00 +14°C° 0 mm 6 mps 735 mmHg 47%
    13:00 +15°C° 0 mm 6 mps 734 mmHg 46%
    14:00 +15°C° 0 mm 6 mps 734 mmHg 45%
    15:00 +16°C° 0 mm 6 mps 734 mmHg 44%
    16:00 +15°C° 0 mm 5 mps 734 mmHg 47%
    17:00 +14°C° 0 mm 5 mps 734 mmHg 50%
    18:00 +13°C° 0 mm 4 mps 734 mmHg 53%
    19:00 +11°C° 0 mm 4 mps 735 mmHg 59%
    20:00 +10°C° 0 mm 3 mps 735 mmHg 64%
    21:00 +8°C° 0 mm 3 mps 736 mmHg 69%
    22:00 +8°C° 0 mm 3 mps 736 mmHg 71%
    23:00 +7°C° 0 mm 2 mps 735 mmHg 72%

    27 April, Thursday

    Time Temperature Precipitation Wind Pressure Humidity
    00:00 +7°C° 0 mm 2 mps 735 mmHg 74%
    01:00 +6°C° 0 mm 2 mps 735 mmHg 76%
    02:00 +7°C° 0 mm 1 mps 735 mmHg 77%
    03:00 +6°C° 0 mm 1 mps 735 mmHg 79%
    04:00 +7°C° 0 mm 1 mps 735 mmHg 76%
    05:00 +7°C° 0 mm 1 mps 735 mmHg 74%
    06:00 +8°C° 0 mm 1 mps 735 mmHg 71%
    07:00 +10°C° 0 mm 1 mps 735 mmHg 63%
    08:00 +12°C° 0 mm 2 mps 734 mmHg 55%
    09:00 +12°C° 0 mm 3 mps 734 mmHg 47%
    10:00 +14°C° 0 mm 3 mps 734 mmHg 45%
    11:00 +15°C° 0 mm 4 mps 733 mmHg 42%
    12:00 +17°C° 0 mm 4 mps 733 mmHg 39%
    13:00 +17°C° 0 mm 5 mps 732 mmHg 40%
    14:00 +17°C° 0 mm 5 mps 732 mmHg 42%
    15:00 +17°C° 0 mm 5 mps 731 mmHg 43%
    16:00 +16°C° 0 mm 5 mps 732 mmHg 48%
    17:00 +15°C° 0 mm 4 mps 732 mmHg 53%
    18:00 +14°C° 0 mm 4 mps 732 mmHg 58%
    19:00 +13°C° 0 mm 3 mps 733 mmHg 63%
    20:00 +11°C° 0 mm 3 mps 733 mmHg 67%
    21:00 +10°C° 0 mm 2 mps 734 mmHg 72%
    22:00 +9°C° 0 mm 2 mps 734 mmHg 72%
    23:00 +9°C° 0 mm 2 mps 734 mmHg 73%

    28 April, Friday

    Time Temperature Precipitation Wind Pressure Humidity
    00:00 +8°C° 0 mm 2 mps 733 mmHg 73%
    01:00 +9°C° 0 mm 1 mps 733 mmHg 73%
    02:00 +9°C° 0 mm 1 mps 733 mmHg 74%
    03:00 +7°C° 0 mm 0 mps 733 mmHg 74%
    04:00 +9°C° 0 mm 1 mps 733 mmHg 72%
    05:00 +10°C° 0 mm 1 mps 733 mmHg 71%
    06:00 +10°C° 0 mm 1 mps 733 mmHg 69%
    07:00 +12°C° 0 mm 1 mps 733 mmHg 63%
    08:00 +14°C° 0 mm 1 mps 733 mmHg 57%
    09:00 +15°C° 0 mm 1 mps 732 mmHg 50%
    10:00 +16°C° 0 mm 2 mps 732 mmHg 48%
    11:00 +18°C° 0 mm 2 mps 731 mmHg 46%
    12:00 +19°C° 0 mm 2 mps 731 mmHg 44%
    13:00 +19°C° 0 mm 2 mps 730 mmHg 44%
    14:00 +20°C° 0 mm 3 mps 730 mmHg 43%
    15:00 +20°C° 0 mm 3 mps 729 mmHg 43%
    16:00 +19°C° 0 mm 2 mps 729 mmHg 47%
    17:00 +18°C° 0 mm 2 mps 730 mmHg 51%
    18:00 +18°C° 0 mm 2 mps 730 mmHg 54%
    19:00 +16°C° 0 mm 1 mps 730 mmHg 59%
    20:00 +14°C° 0 mm 1 mps 730 mmHg 64%
    21:00 +12°C° 0 mm 1 mps 730 mmHg 69%
    22:00 +11°C° 0 mm 1 mps 730 mmHg 70%
    23:00 +11°C° 0 mm 1 mps 730 mmHg 71%

    29 April, Saturday

    Time Temperature Precipitation Wind Pressure Humidity
    00:00 +10°C° 0 mm 1 mps 729 mmHg 72%
    01:00 +10°C° 0 mm 1 mps 729 mmHg 72%
    02:00 +10°C° 0 mm 1 mps 729 mmHg 72%
    03:00 +10°C° 0 mm 1 mps 728 mmHg 71%
    04:00 +11°C° 0 mm 1 mps 728 mmHg 70%
    05:00 +10°C° 0 mm 2 mps 728 mmHg 69%
    06:00 +12°C° 0 mm 2 mps 728 mmHg 68%
    07:00 +15°C° 0 mm 2 mps 728 mmHg 60%
    08:00 +17°C° 0 mm 2 mps 728 mmHg 52%
    09:00 +19°C° 0 mm 2 mps 728 mmHg 44%
    10:00 +21°C° 0 mm 2 mps 727 mmHg 41%
    11:00 +23°C° 0 mm 2 mps 727 mmHg 39%
    12:00 +24°C° 0 mm 1 mps 726 mmHg 37%
    13:00 +24°C° 0.1 mm 1 mps 726 mmHg 37%
    14:00 +25°C° 0.1 mm 1 mps 726 mmHg 38%
    15:00 +25°C° 0.1 mm 1 mps 725 mmHg 38%
    16:00 +24°C° 0.3 mm 1 mps 726 mmHg 42%
    17:00 +23°C° 0.3 mm 1 mps 726 mmHg 46%
    18:00 +22°C° 0.3 mm 1 mps 726 mmHg 51%
    19:00 +20°C° 0 mm 1 mps 726 mmHg 54%
    20:00 +18°C° 0 mm 1 mps 726 mmHg 58%
    21:00 +15°C° 0 mm 1 mps 726 mmHg 62%
    22:00 +14°C° 0 mm 1 mps 726 mmHg 62%
    23:00 +14°C° 0 mm 1 mps 726 mmHg 62%
    Show more